Location: Quedlinburg
(51.7921°N, 11.1414°E)
Time: 13:56:33
(UTC+02:00)

RS-15 - Pass Details

Date: 14 March 2026
Orbit: 1893 x 2152 km, 64.8° (Epoch: 22 April)

Event Time Altitude Azimuth Distance (km) Brightness Sun altitude
Rises 04:34:04 0° 316° (NW) 5,375 10.1 -18.8°
Reaches altitude 10° 04:37:18 10° 317° (NW) 4,402 9.7 -18.3°
Maximum altitude 04:48:47 89° 47° (NE) 2,047 8.1 -16.6°
Drops below altitude 10° 05:00:48 10° 141° (SE) 4,595 10.3 -14.8°
Sets 05:04:15 0° 141° (SE) 5,618 10.8 -14.3°
